TimeWET,TemperatureF,Dew PointF,Humidity,Sea Level PressureIn,VisibilityMPH,Wind Direction,Wind SpeedMPH,Gust SpeedMPH,PrecipitationIn,Events,Conditions,WindDirDegrees,DateUTC
12:00 AM,64,61,86,29.91,6,West,6.9,,,,Partly Cloudy,280,2012-10-27 00:00:00
12:00 AM,64.4,60.8,88,29.95,6.2,West,6.9,-,N/A,,Scattered Clouds,280,2012-10-27 00:00:00
2:30 AM,60.8,59.0,94,29.92,6.2,Variable,2.3,-,N/A,,Scattered Clouds,0,2012-10-27 02:30:00
3:00 AM,62,60,90,29.88,6,SW,3.5,,,,Partly Cloudy,220,2012-10-27 03:00:00
3:00 AM,62.6,59.0,88,29.92,6.2,SW,3.5,-,N/A,,Scattered Clouds,220,2012-10-27 03:00:00
3:30 AM,62.6,59.0,88,29.92,6.2,SW,4.6,-,N/A,,Scattered Clouds,230,2012-10-27 03:30:00
4:00 AM,62.6,59.0,88,29.92,6.2,WSW,3.5,-,N/A,,Scattered Clouds,240,2012-10-27 04:00:00
4:30 AM,62.6,59.0,88,29.92,6.2,WSW,3.5,-,N/A,,Scattered Clouds,240,2012-10-27 04:30:00
5:00 AM,62.6,59.0,88,29.92,6.2,WSW,5.8,-,N/A,,Scattered Clouds,250,2012-10-27 05:00:00
5:30 AM,62.6,59.0,88,29.92,6.2,WSW,6.9,-,N/A,,Scattered Clouds,240,2012-10-27 05:30:00
6:00 AM,62,59,88,29.90,6,West,8.1,,,,Partly Cloudy,260,2012-10-27 06:00:00
6:00 AM,62.6,59.0,88,29.92,6.2,West,8.1,-,N/A,,Scattered Clouds,270,2012-10-27 06:00:00
6:30 AM,62.6,59.0,88,29.92,6.2,West,6.9,-,N/A,,Scattered Clouds,270,2012-10-27 06:30:00
7:00 AM,60.8,60.8,100,29.95,6.2,WSW,6.9,-,N/A,,Mostly Cloudy,250,2012-10-27 07:00:00
7:30 AM,60.8,60.8,100,29.95,6.2,SW,5.8,-,N/A,,Mostly Cloudy,230,2012-10-27 07:30:00
8:00 AM,62.6,59.0,88,29.95,6.2,SW,8.1,-,N/A,,Mostly Cloudy,230,2012-10-27 08:00:00
8:30 AM,64.4,59.0,83,29.95,6.2,SW,6.9,-,N/A,,Mostly Cloudy,220,2012-10-27 08:30:00
9:00 AM,65,59,75,29.93,6,West,5.8,,,,Unknown Precipitation,260,2012-10-27 09:00:00
9:00 AM,66.2,59.0,78,29.95,6.2,West,6.9,-,N/A,,Mostly Cloudy,260,2012-10-27 09:00:00
9:30 AM,66.2,57.2,73,29.95,6.2,West,9.2,-,N/A,,Scattered Clouds,260,2012-10-27 09:30:00
10:00 AM,68.0,59.0,73,29.95,6.2,West,10.4,-,N/A,,Scattered Clouds,260,2012-10-27 10:00:00
10:30 AM,66.2,60.8,83,29.95,6.2,WNW,11.5,-,N/A,,Scattered Clouds,300,2012-10-27 10:30:00
11:00 AM,68.0,59.0,73,29.95,6.2,West,12.7,-,N/A,,Scattered Clouds,280,2012-10-27 11:00:00
11:30 AM,69.8,57.2,64,29.95,6.2,West,11.5,-,N/A,,Scattered Clouds,280,2012-10-27 11:30:00
12:00 PM,70,57,54,29.90,6,West,9.2,,,,Unknown Precipitation,280,2012-10-27 12:00:00
12:00 PM,69.8,57.2,64,29.95,6.2,West,10.4,-,N/A,,Scattered Clouds,280,2012-10-27 12:00:00
12:30 PM,71.6,57.2,60,29.95,6.2,West,12.7,-,N/A,,Scattered Clouds,280,2012-10-27 12:30:00
1:00 PM,71.6,57.2,60,29.95,6.2,West,11.5,-,N/A,,Scattered Clouds,280,2012-10-27 13:00:00
1:30 PM,69.8,57.2,64,29.92,6.2,West,11.5,-,N/A,,Scattered Clouds,280,2012-10-27 13:30:00
2:00 PM,69.8,57.2,64,29.92,6.2,West,10.4,-,N/A,,Scattered Clouds,280,2012-10-27 14:00:00
2:30 PM,69.8,57.2,64,29.92,6.2,WNW,9.2,-,N/A,,Scattered Clouds,300,2012-10-27 14:30:00
3:00 PM,69,57,58,29.88,6,West,11.5,,,,Partly Cloudy,280,2012-10-27 15:00:00
3:00 PM,69.8,57.2,64,29.92,6.2,West,11.5,-,N/A,,Scattered Clouds,280,2012-10-27 15:00:00
3:30 PM,69.8,57.2,64,29.92,6.2,WNW,9.2,-,N/A,,Scattered Clouds,290,2012-10-27 15:30:00
4:00 PM,69.8,57.2,64,29.92,6.2,WNW,10.4,-,N/A,,Scattered Clouds,290,2012-10-27 16:00:00
4:30 PM,68.0,57.2,68,-9999,6.2,West,12.7,-,N/A,,Scattered Clouds,280,2012-10-27 16:30:00
5:00 PM,68.0,57.2,68,29.95,6.2,West,9.2,-,N/A,,Scattered Clouds,280,2012-10-27 17:00:00
5:30 PM,68.0,57.2,68,29.95,6.2,West,8.1,-,N/A,,Scattered Clouds,280,2012-10-27 17:30:00
6:00 PM,67,57,63,29.90,6,West,4.6,,,,Partly Cloudy,270,2012-10-27 18:00:00
6:00 PM,66.2,57.2,73,29.95,6.2,West,5.8,-,N/A,,Scattered Clouds,270,2012-10-27 18:00:00
6:30 PM,64.4,57.2,77,29.95,6.2,West,4.6,-,N/A,,Scattered Clouds,270,2012-10-27 18:30:00
7:00 PM,64.4,57.2,77,29.95,6.2,WSW,4.6,-,N/A,,Scattered Clouds,240,2012-10-27 19:00:00
7:30 PM,64.4,57.2,77,29.98,6.2,WSW,5.8,-,N/A,,Scattered Clouds,240,2012-10-27 19:30:00
8:00 PM,62.6,55.4,77,29.98,6.2,West,3.5,-,N/A,,Scattered Clouds,270,2012-10-27 20:00:00
8:30 PM,62.6,55.4,77,29.98,6.2,WSW,4.6,-,N/A,,Scattered Clouds,250,2012-10-27 20:30:00
9:00 PM,61,56,78,29.96,6,West,3.5,,,,Scattered Clouds,270,2012-10-27 21:00:00
9:00 PM,60.8,55.4,82,29.98,6.2,West,3.5,-,N/A,,Scattered Clouds,260,2012-10-27 21:00:00
9:30 PM,60.8,57.2,88,29.98,6.2,West,3.5,-,N/A,,Scattered Clouds,270,2012-10-27 21:30:00
10:00 PM,62.6,57.2,82,29.98,6.2,WSW,3.5,-,N/A,,Scattered Clouds,250,2012-10-27 22:00:00
10:30 PM,60.8,57.2,88,30.01,6.2,WSW,4.6,-,N/A,,Scattered Clouds,240,2012-10-27 22:30:00
11:00 PM,60.8,57.2,88,30.01,6.2,SW,4.6,-,N/A,,Scattered Clouds,230,2012-10-27 23:00:00
11:30 PM,60.8,57.2,88,30.01,6.2,SW,4.6,-,N/A,,Scattered Clouds,230,2012-10-27 23:30:00